Wind_Speed
2 3 1 2 3 4 1 1 3 4 5 2 7 3 5 6 1 4 12 17 20 18 14 12 10 9 11 12 13 12 13 15 14 15 13 13 13 13 14 14 14 13 13 15 15 16 16 16 16
2 2 2 1 4 4 2 2 4 3 4 8 8 5 6 4 4 9 13 15 20 18 15 12 11 10 11 12 13 13 13 13 15 14 12 13 13 13 12 13 13 13 13 14 14 15 15 17 18
6 2 2 3 2 3 4 2 7 11 13 3 5 7 3 3 8 12 13 22 22 18 16 14 13 12 12 12 12 12 12 13 14 14 12 12 14 12 12 12 12 13 13 13 14 15 15 15 12
2 3 3 4 6 4 5 7 11 15 4 5 9 8 5 3 5 9 26 24 22 19 16 14 14 16 13 13 11 11 11 12 13 13 12 11 12 12 12 12 13 13 13 14 13 13 13 15 14
3 2 4 4 5 4 9 4 4 9 6 8 4 5 4 4 11 24 25 23 21 20 17 16 14 13 13 12 10 10 10 12 12 13 11 12 11 12 11 11 12 13 13 13 12 12 15 11 11
3 2 4 3 5 8 4 8 3 5 9 12 11 8 3 11 20 22 23 23 22 21 19 17 16 14 12 12 11 10 10 11 12 12 12 12 10 11 10 10 11 11 11 11 10 11 11 12 11
4 3 3 4 2 7 7 10 5 11 11 9 9 5 4 8 15 22 22 23 23 20 18 19 16 14 13 12 12 11 11 11 13 12 12 12 10 10 10 9 9 9 9 9 10 11 10 10 7
3 3 4 3 6 2 6 4 0 5 2 11 9 6 7 10 20 21 22 23 21 20 20 18 16 15 14 13 9 10 10 10 11 12 12 11 10 10 9 8 8 8 7 8 10 10 8 7 5
3 3 3 7 9 5 9 5 4 2 10 3 4 7 14 27 26 23 25 22 22 20 19 19 17 15 15 13 11 10 10 9 10 10 12 12 12 11 8 8 8 7 7 8 9 8 7 7 5
3 3 5 7 6 6 2 4 4 5 11 5 15 16 26 27 24 21 19 19 22 25 22 20 18 17 15 14 12 12 11 12 12 11 11 11 10 9 8 8 7 7 7 7 7 7 6 3 4
2 4 3 9 10 6 6 0 5 11 11 9 20 18 21 23 17 18 19 20 24 27 24 21 20 19 17 16 13 13 11 11 12 11 10 9 8 8 8 8 8 7 7 5 5 5 4 4 3
1 2 5 6 8 6 8 5 6 5 5 12 22 24 24 14 17 18 17 21 24 28 26 24 21 19 16 15 15 16 13 11 11 9 8 7 5 5 5 5 4 3 2 1 1 2 3 5 6
1 2 4 7 8 2 9 7 6 4 11 14 20 20 18 15 19 19 17 23 27 26 27 25 21 19 17 17 17 15 11 9 7 8 9 8 6 5 3 3 3 4 6 6 5 7 6 4 2
4 3 9 7 6 7 7 3 7 1 8 18 19 18 17 16 22 20 19 24 28 29 27 25 23 20 19 20 18 15 12 8 7 7 6 7 7 5 5 6 6 6 4 2 1 3 3 3 4
6 6 4 5 7 5 5 2 6 5 8 21 19 17 17 18 23 26 31 27 33 31 27 27 25 21 21 19 17 15 13 10 10 8 5 9 9 4 3 2 0 4 5 4 2 1 5 5 1
2 2 0 5 4 4 5 4 5 2 7 9 18 14 17 13 23 26 28 27 29 31 29 29 26 23 21 19 16 14 14 10 14 11 8 9 10 6 4 3 2 2 2 2 2 3 3 2 6
3 3 4 1 8 5 7 2 5 2 7 9 14 15 12 13 15 23 27 26 32 32 31 33 25 26 22 17 17 16 17 14 14 15 11 11 9 7 4 5 5 4 2 0 2 1 1 6 6
6 1 2 5 7 5 10 7 6 6 7 12 11 10 9 12 16 24 26 26 29 33 32 34 28 25 20 17 18 17 17 17 14 15 12 13 9 7 6 4 3 4 3 2 4 4 3 6 6
4 4 7 3 7 5 12 7 7 7 4 11 11 10 9 9 10 22 24 25 29 29 32 33 29 26 24 18 15 16 18 17 17 16 13 11 10 8 6 5 6 5 3 3 3 6 9 5 2
5 3 5 1 7 2 4 11 5 8 7 10 13 12 12 8 9 16 20 24 28 33 30 28 28 28 23 22 22 16 14 17 20 18 14 11 10 9 8 6 6 5 6 2 3 6 7 7 4
2 7 4 4 6 2 3 4 5 3 2 5 6 11 12 13 13 12 19 23 25 28 32 33 31 29 23 22 19 14 11 16 20 19 16 12 11 9 7 6 4 7 6 4 4 6 6 5 6
5 9 12 6 5 3 8 4 4 5 11 8 11 9 11 10 8 12 20 23 27 32 32 35 30 30 26 24 22 16 17 17 21 22 19 16 13 12 10 7 4 9 5 7 5 6 7 5 4
9 14 12 1 5 2 3 2 3 4 2 7 13 10 10 12 12 15 20 26 31 28 33 34 31 29 28 27 24 19 15 16 17 18 20 16 14 13 12 8 7 7 7 9 6 6 7 5 6
7 5 8 6 4 2 5 6 4 3 4 4 10 12 11 15 12 12 19 22 21 24 27 32 33 31 32 28 25 22 18 16 18 20 20 18 16 16 14 14 10 9 8 12 6 4 4 3 1
7 7 2 2 3 5 3 2 1 2 2 3 8 14 12 12 12 10 12 19 23 26 27 31 35 34 35 30 27 25 22 20 20 23 22 20 19 18 17 15 13 11 9 8 8 6 4 3 2
5 8 6 5 4 5 1 2 4 3 2 2 7 1 6 7 11 11 17 21 24 27 29 30 33 34 36 33 29 27 24 22 19 22 22 21 21 19 16 17 15 15 11 11 11 8 7 6 6
4 2 3 7 4 2 2 2 1 4 3 5 5 7 3 3 5 13 16 21 23 27 31 33 32 35 36 36 31 30 26 23 20 19 15 22 20 22 19 17 16 16 14 13 11 11 10 10 10
3 5 2 4 3 2 4 4 4 5 1 3 4 4 2 2 4 8 14 23 25 27 29 31 35 37 38 36 35 32 29 25 21 20 18 18 15 15 19 19 18 19 18 15 13 11 11 10 12
3 2 7 6 3 5 2 6 5 6 5 2 4 6 6 3 5 5 12 23 26 22 25 32 35 36 36 35 38 35 32 27 25 22 21 21 17 16 18 20 23 24 23 17 16 16 15 15 13
2 3 5 5 4 1 3 5 2 5 3 5 6 5 3 4 5 7 11 19 25 31 23 29 29 32 37 37 39 39 34 32 28 27 24 23 20 20 19 19 17 18 24 19 18 19 18 18 17
Wind_Direction
176 157 106 65 62 81 67 194 150 155 136 98 132 143 119 46 42 148 151 147 149 145 142 141 140 137 137 137 122 121 116 105 107 99 105 109 111 111 117 111 106 101 100 99 99 100 101 102 102
66 133 76 55 76 69 26 64 164 186 123 153 111 126 52 55 62 109 126 152 155 150 152 152 142 139 140 138 137 128 124 124 118 115 110 109 109 115 118 118 119 112 110 108 104 103 103 102 100
79 134 81 85 88 72 148 147 127 126 139 128 105 67 62 74 98 141 148 154 155 153 151 145 142 132 134 133 127 124 122 121 118 115 117 114 115 114 122 124 117 117 112 105 104 104 108 102 108
80 46 42 68 82 33 83 169 140 132 155 65 109 70 56 55 122 145 148 153 155 156 155 145 140 135 136 128 121 123 119 114 114 115 114 110 114 116 117 120 121 114 114 110 109 114 108 107 101
54 50 58 72 46 41 10 106 181 125 126 102 92 111 72 90 128 144 153 158 159 154 153 148 143 144 145 142 133 119 121 123 119 121 120 118 118 116 116 116 114 116 109 110 122 122 115 111 98
51 90 49 56 32 346 11 344 264 115 112 97 98 92 37 132 133 147 161 162 158 153 154 151 152 151 145 140 134 129 129 129 132 128 123 121 122 123 119 115 115 110 112 119 132 125 113 103 93
101 67 109 90 68 358 338 310 209 128 123 114 128 86 127 96 142 154 161 158 154 155 157 154 153 152 150 147 145 140 133 137 132 129 130 129 123 126 125 117 115 115 119 127 136 130 119 105 103
92 95 114 140 153 245 257 279 63 76 100 110 156 150 170 169 147 153 156 157 155 157 156 156 155 161 156 149 147 142 140 139 140 133 134 125 118 123 119 116 112 116 122 129 141 143 141 135 123
173 60 138 163 155 213 268 230 157 79 136 164 156 127 139 154 153 147 152 158 161 163 164 163 163 165 156 153 151 151 143 149 143 137 131 140 134 135 140 123 115 114 114 123 139 152 156 150 137
94 111 201 167 180 190 195 336 312 183 168 88 100 102 136 152 157 155 155 161 165 169 170 171 169 167 163 154 158 157 159 163 158 152 142 144 139 137 134 127 119 103 102 105 118 140 166 161 153
142 175 139 172 170 130 171 203 304 179 185 169 143 145 152 158 164 165 167 172 173 173 172 177 173 168 167 168 170 168 167 163 156 155 156 154 154 152 153 136 126 112 103 103 114 141 136 161 190
190 296 244 147 154 149 146 340 294 239 199 163 153 155 155 168 170 172 172 175 177 179 177 177 176 174 174 172 165 158 162 160 159 161 165 168 171 176 158 148 130 112 32 18 337 283 288 282 284
179 192 119 168 146 213 133 230 282 192 137 146 144 157 168 171 174 181 181 183 181 179 179 178 178 176 175 171 165 166 172 179 188 210 208 201 187 178 173 193 242 285 297 300 304 312 312 323 294
109 58 113 152 155 145 150 235 352 110 136 151 155 168 172 176 177 180 183 188 185 181 182 182 182 179 178 172 177 182 187 183 166 168 182 191 195 216 264 246 272 315 327 305 290 341 343 356 16
119 98 117 142 167 144 128 287 204 250 165 163 170 169 176 184 174 186 192 191 187 188 185 188 189 186 185 183 184 190 183 185 182 174 201 206 204 199 161 172 129 71 63 68 69 91 326 275 175
92 76 165 153 188 186 159 238 239 250 180 174 167 167 180 184 182 188 197 191 189 190 191 191 192 193 190 190 193 194 192 211 190 185 174 170 178 179 146 166 163 100 66 70 138 218 309 158 184
258 167 229 224 193 146 180 223 206 108 197 176 161 171 172 172 183 186 194 189 191 194 191 197 200 197 192 194 198 209 204 206 191 189 180 170 165 161 165 130 138 137 143 209 163 336 255 204 210
185 223 277 215 179 195 192 251 196 161 156 166 181 167 167 174 175 182 185 186 192 195 199 197 196 196 193 197 204 204 207 206 208 202 191 185 180 184 180 166 143 173 195 154 115 61 135 211 240
133 168 205 245 179 154 199 219 211 193 191 166 171 167 174 185 175 177 179 179 188 192 193 196 200 201 198 194 193 191 203 228 226 206 203 193 195 197 203 242 225 206 187 144 126 101 109 121 205
203 190 216 83 156 151 190 227 197 183 203 183 170 176 187 160 157 175 176 181 184 190 197 201 199 194 201 198 192 202 233 224 207 205 203 194 189 203 211 195 204 226 198 184 157 134 127 103 122
255 199 190 195 158 203 341 282 177 238 191 174 206 188 186 181 171 175 176 184 187 196 201 198 197 198 194 188 190 207 199 197 198 203 200 206 203 207 198 205 197 200 201 200 161 146 147 118 68
253 181 183 207 102 239 169 275 271 179 204 194 207 189 186 179 190 181 182 184 191 202 200 197 201 199 197 195 191 194 195 194 199 208 209 214 219 205 212 195 208 191 191 174 162 130 133 121 155
222 170 184 199 99 62 320 61 257 104 249 228 215 215 195 196 186 187 184 195 195 196 200 201 202 204 200 201 202 198 195 197 198 202 207 217 211 207 210 214 216 198 190 181 159 149 132 131 95
128 78 39 42 78 4 231 159 323 6 307 289 222 219 194 191 190 188 188 186 194 192 198 205 206 205 207 206 207 207 203 206 213 211 219 222 215 211 211 218 220 220 224 201 224 177 149 129 219
77 74 6 17 19 220 147 73 215 317 323 323 281 204 208 190 189 169 170 180 183 188 193 202 204 207 205 210 210 210 212 215 222 217 222 221 217 213 219 218 217 227 216 214 212 217 197 186 186
166 155 150 182 192 242 264 268 212 201 284 349 40 31 181 213 198 184 186 184 189 190 193 198 206 212 209 210 214 214 220 223 217 219 223 235 231 230 228 223 225 226 222 219 224 232 233 242 240
185 107 170 104 10 73 282 214 316 177 20 353 41 71 53 265 219 183 189 189 189 194 197 199 205 210 212 213 217 216 220 225 215 215 229 234 239 241 231 231 229 229 234 234 234 233 234 249 251
120 149 71 20 134 208 302 281 229 229 318 326 350 11 247 262 235 231 178 190 197 200 200 201 208 213 215 217 219 218 215 216 214 224 234 231 233 232 237 236 236 233 234 237 239 237 239 248 247
24 65 54 104 114 152 188 265 212 189 193 235 267 300 296 296 285 246 215 184 192 197 202 203 207 212 215 216 220 218 216 214 215 221 229 227 229 232 238 236 242 244 229 235 239 239 244 248 248
188 139 128 119 218 106 144 271 78 136 188 260 270 300 262 249 303 296 206 169 174 196 200 206 208 210 213 215 213 218 220 219 219 221 223 224 228 231 242 247 238 230 222 231 240 245 243 245 248
Height
769 770 770 771 790 788 798 791 774 782 784 777 776 784 789 788 795 814 796 799 803 807 809 811 811 814 815 815 815 816 816 816 818 817 819 820 822 822 824 824 824 826 827 827 828 829 830 831 831
768 769 770 775 795 810 804 780 786 779 774 776 776 780 788 798 790 796 799 802 805 808 811 813 814 815 818 817 818 818 818 819 818 819 821 822 823 824 825 825 827 828 830 829 830 831 834 833 834
766 768 775 786 796 809 810 785 782 775 772 773 781 781 790 799 796 799 799 803 807 811 813 815 816 818 820 820 820 820 820 822 822 823 825 825 824 827 828 828 829 830 831 832 833 833 836 835 839
766 769 776 795 795 791 784 783 776 775 773 771 778 794 793 794 797 798 802 806 809 812 815 817 818 821 822 820 821 823 823 823 823 825 826 827 827 830 830 830 831 832 834 834 835 837 837 840 841
766 773 794 802 798 791 792 778 778 778 778 778 778 798 802 801 799 800 804 807 811 814 817 818 820 822 824 824 823 824 825 826 827 828 829 829 831 833 834 834 834 835 835 836 838 839 841 842 844
774 777 802 814 809 801 793 789 779 780 779 783 790 795 808 803 803 804 807 810 813 816 818 819 821 823 825 825 825 827 828 829 830 831 831 832 834 835 837 837 837 837 838 840 841 842 844 845 846
780 789 807 810 813 808 802 787 781 780 784 790 785 805 808 806 807 807 810 812 815 818 820 821 823 826 827 828 828 829 831 831 832 834 835 835 837 837 839 840 839 841 842 843 844 845 847 847 848
781 788 806 810 812 814 800 789 779 781 785 779 785 805 811 807 808 811 814 815 817 820 822 823 825 828 830 831 831 832 833 834 835 836 837 838 839 840 842 842 841 842 844 845 846 847 849 849 851
777 798 809 808 810 808 794 792 779 774 780 781 781 787 794 804 809 813 815 817 819 821 823 825 827 829 832 832 834 835 836 837 839 839 840 842 841 843 844 844 844 845 846 847 848 850 850 851 854
784 801 798 789 792 798 793 794 791 786 784 790 789 794 800 805 809 811 814 816 818 820 823 826 827 830 833 835 836 836 838 838 839 840 841 843 844 846 846 847 847 848 849 849 851 851 852 854 855
782 793 783 786 786 789 794 795 794 784 792 789 792 798 803 806 810 812 814 815 817 820 823 826 829 831 834 835 837 838 839 840 841 841 843 845 847 848 848 849 850 851 850 851 852 852 854 855 856
786 779 780 784 784 788 793 794 799 787 782 782 785 790 799 806 809 811 815 817 818 821 822 826 829 831 834 836 838 839 841 842 842 844 845 846 848 849 849 849 851 852 853 853 853 853 855 854 854
786 780 775 781 787 789 789 797 796 786 779 786 791 798 802 806 808 812 816 818 819 821 823 826 829 831 834 836 839 842 843 844 844 845 846 847 848 849 850 850 852 853 853 853 852 853 854 853 853
779 778 780 782 788 790 795 796 795 785 779 789 794 800 802 805 807 812 815 815 817 820 822 825 828 831 834 837 840 842 844 845 845 845 846 848 849 850 850 851 852 853 852 852 852 853 854 854 854
780 790 786 787 788 793 794 806 801 787 784 789 795 798 802 803 806 807 807 811 814 818 822 825 828 831 834 837 840 841 844 846 846 846 847 849 850 851 851 852 852 853 852 851 852 853 853 854 855
784 790 804 790 788 786 795 810 792 787 786 789 795 800 800 803 805 807 809 811 815 819 821 826 828 830 833 835 838 841 843 845 846 848 849 850 851 853 852 852 853 854 854 853 853 853 852 853 854
796 805 801 796 787 788 796 801 788 787 786 791 794 797 802 804 806 805 808 811 813 817 821 824 827 829 832 834 837 841 843 845 846 848 850 851 852 853 854 854 854 855 855 854 852 852 852 852 853
806 804 797 798 790 790 798 799 791 787 787 790 791 795 798 801 800 801 806 811 814 818 820 823 826 829 832 835 838 841 843 844 846 848 850 851 852 853 853 854 855 855 854 853 853 852 852 853 854
781 791 796 788 783 790 794 794 792 788 790 791 792 795 797 799 798 800 805 808 813 818 821 822 824 828 832 835 838 841 842 843 845 847 849 850 851 852 853 854 854 854 854 853 853 853 852 853 854
787 788 794 782 782 789 793 793 788 790 789 789 790 793 793 796 799 801 805 808 811 814 819 820 822 826 830 833 837 839 841 841 844 847 848 850 851 852 852 853 853 854 854 853 853 853 853 854 854
784 790 791 784 784 786 792 800 795 790 789 790 789 787 788 791 797 799 802 805 810 813 816 818 820 824 828 832 836 838 840 841 843 846 847 848 850 851 852 854 853 853 854 853 853 853 853 855 855
793 765 770 770 792 817 789 821 796 794 792 792 789 790 789 791 794 796 798 801 805 808 813 816 819 822 826 831 834 836 838 840 842 844 846 847 849 850 852 853 853 853 854 853 854 854 852 854 855
776 757 765 769 794 799 798 815 797 796 805 798 788 786 787 786 789 793 794 797 798 806 810 813 817 820 824 828 831 834 837 839 840 842 845 846 847 849 851 852 853 853 854 854 854 853 852 853 855
748 769 784 795 807 828 807 812 817 809 805 794 786 784 782 783 784 788 792 796 800 804 808 811 814 819 822 825 829 832 834 837 839 841 842 843 846 848 850 852 854 853 853 853 854 853 853 853 855
769 792 830 829 833 833 806 811 815 801 794 793 784 777 778 778 781 785 788 792 797 800 804 809 812 816 820 823 826 829 831 834 837 839 840 841 843 845 847 850 851 851 852 852 853 853 852 853 855
773 788 822 831 842 826 805 816 812 796 793 787 781 776 776 779 777 781 784 787 791 795 800 804 808 812 816 819 822 825 829 831 834 836 838 839 840 842 845 848 849 850 850 851 852 852 851 852 854
771 789 780 821 826 828 823 806 799 794 794 788 783 781 779 778 774 776 782 783 786 792 795 798 804 808 812 816 820 822 824 828 831 833 835 836 838 840 843 845 846 847 848 849 850 850 850 851 852
758 771 798 815 827 827 825 815 812 796 795 790 787 784 778 774 773 773 773 778 782 785 791 795 798 803 806 811 815 818 820 823 827 830 831 832 835 837 840 842 843 845 846 847 848 848 849 850 851
774 785 805 814 826 839 839 826 790 792 792 791 786 783 781 776 772 769 769 770 777 784 788 790 792 798 802 804 810 814 817 820 823 826 828 830 832 834 836 838 839 841 843 844 845 846 847 849 849
765 775 793 815 820 831 832 823 785 789 790 789 786 781 778 773 769 764 763 765 772 774 780 786 789 792 795 799 804 808 813 816 819 822 825 827 829 831 832 834 836 837 839 842 843 843 844 845 845